Tracking 23448 objects as of 23-Jun-2021
HD Live streaming from Space Station
objects crossing your sky now

COSMOS 1285 DEB

Track COSMOS 1285 DEB now!


NORAD ID: 28558
Int'l Code: 1981-071S
Perigee: 5,424.8 km
Apogee: 35,471.5 km
Inclination: 69.2 °
Period: 728.5 minutes
Semi major axis: 26819 km
RCS: 0.197 m2 (medium)
Launch date: August 4, 1981
Source: Commonwealth of Independent States (former USSR) (CIS)
Launch site: PLESETSK MISSILE AND SPACE COMPLEX (PKMTR)

Note: This is SATELLITE DEBRIS
aabbcc
Your satellite tracking list
Your tracking list is empty




NASA's NSSDC Master Catalog

Two Line Element Set (TLE):
1 28558U 81071S   15235.81324521 +.00000719 +00000-0 +00000-0 0  9994
2 28558 069.1748 328.2376 5601726 099.4286 333.8060 01.97667381089155
Source of the keplerian elements: AFSPC